"Pseudo-MPEC" for P10QY7Q

Created 2019 Sep 12 12:07:14 UT using Find_Orb

Click here for an explanation of pseudo-MPECs

 
 Astrometry: 
     P10QY7Q  C2019 08 28Jx?e#9KHB+$'6ZIe1`)r3tie9!cX@(_wAdEo$AstrometrytP:THF51
     P10QY7Q  C2019 08 28?Y$H+k$%Zir;D5s=29Q;WF?Qw4+yR$Y0'd+D\OpQM,Kl#7bph#MiF51
     P10QY7Q  C2019 08 28wX@e=?=Bx'#=)b;@71qeqv1OhsEVPMy'+?l#_/y7k.tdInV5fu,,F51
     P10QY7Q  C2019 08 285*Y[;cb:kG4]JsGId8%sfjv[1Gur=redacted;[-nBqWclick*1HF51
     P10QY7Q |C2019 08 29Ry`Vr-7y+0eO`FOrGJDe_QgSNhere^e2I3IMuuZ!f3for`vy67Ee807
     P10QY7Q |C2019 08 29/mjS2)^y7f7y:i===lmQmYe.0dDGcc0V-=h7UexplanationANB2807
     P10QY7Q |C2019 08 29*u'slD6_kBR%-`5K^64HE/=3Fr/NnAXiHR\GBuld'qKB`vve(P08807
     P10QY7Q ^C2019 08 30.52401423 33 35.465-45 21 58.97   ~8UIb 21.11GVNEOCP568
     P10QY7Q ^C2019 08 30.52519623 33 35.421-45 21 58.99   ~8UIb 20.99GVNEOCP568
     P10QY7Q ^C2019 08 30.52639323 33 35.373-45 21 59.20   ~8UIb 21.13GVNEOCP568

Station data:
(568) Mauna Kea  (N19.826116 W155.472200)  US/Hawaii.
(807) Cerro Tololo Observatory, La Serena  (S30.169136 W70.805900)  Chile.
(F51) Pan-STARRS 1, Haleakala  (N20.707235 W156.255910)  US/Hawaii.
   Observers N. Primak, A. Schultz, S. Watters, J. Thiel, T. Goggia. Measurer
   PS1 Science Consortium. 1.8-m Ritchey-Chrétien + CCD.

Orbital elements:  P10QY7Q
   Perihelion 2015 Nov 3.718122 +/- 900 TT = 17:14:05 (JD 2457330.218122)
Epoch 2019 Aug 30.0 TT = JDT 2458725.5   Ju: 0.6741           AutoNEOCP
M 116.47535849 +/- 90               (J2000 ecliptic)
n   0.08347801 +/- 0.0329           Peri.  154.47310 +/- 80
a   5.18507028 +/- 1.36             Node    50.64202 +/- 11
e   0.1046035 +/- 0.219             Incl.   32.47727 +/- 2.9
P  11.81                   H 13.8   G  0.15   U 10.5  SR
q 4.64269328 +/- 0.977    Q 5.72744728 +/- 8.38
From 10 observations 2019 Aug. 28-30; mean residual 0".11
Residuals in arcseconds: 
190828 F51  .13-  .01+    190829 807  .01+  .10+    190830 568  .03+  .10+    
190828 F51  .06+  .04-    190829 807  .12-  .25-    190830 568  .04+  .08+    
190828 F51  .15+  .10+    190829 807  .07-  .18-    
190828 F51  .04+  .15+    190830 568  .01-  .06-    

Ephemerides (geocentric):
Date (UTC) HH   RA              Dec         delta   r     elong  mag " sig PA
---- -- -- --  -------------   -----------  ------ ------ -----  --- ---- ---
2019 09 12 12  23 24 42.405   -45 43 31.28  4.6826 5.4777 138.5 21.4  140  82
2019 09 12 13  23 24 40.670   -45 43 32.95  4.6828 5.4777 138.5 21.4  141  82
2019 09 12 14  23 24 38.935   -45 43 34.60  4.6830 5.4777 138.5 21.4  142  82
2019 09 12 15  23 24 37.199   -45 43 36.23  4.6832 5.4777 138.5 21.4  143  82
2019 09 12 16  23 24 35.464   -45 43 37.85  4.6834 5.4778 138.5 21.4  144  82
2019 09 12 17  23 24 33.730   -45 43 39.45  4.6836 5.4778 138.5 21.4  145  82
2019 09 12 18  23 24 31.995   -45 43 41.04  4.6838 5.4778 138.5 21.4  145  83
2019 09 12 19  23 24 30.260   -45 43 42.60  4.6839 5.4778 138.4 21.4  146  83
2019 09 12 20  23 24 28.525   -45 43 44.16  4.6841 5.4779 138.4 21.4  147  83
2019 09 12 21  23 24 26.791   -45 43 45.69  4.6843 5.4779 138.4 21.4  148  83
2019 09 12 22  23 24 25.056   -45 43 47.21  4.6845 5.4779 138.4 21.4  149  83
2019 09 12 23  23 24 23.322   -45 43 48.71  4.6847 5.4779 138.4 21.4  150  83
2019 09 13 00  23 24 21.587   -45 43 50.20  4.6849 5.4780 138.4 21.4  151  83
2019 09 13 01  23 24 19.853   -45 43 51.67  4.6851 5.4780 138.3 21.4  151  83
2019 09 13 02  23 24 18.119   -45 43 53.12  4.6853 5.4780 138.3 21.4  152  83
2019 09 13 03  23 24 16.385   -45 43 54.56  4.6855 5.4781 138.3 21.4  153  83
2019 09 13 04  23 24 14.651   -45 43 55.98  4.6857 5.4781 138.3 21.4  154  83
2019 09 13 05  23 24 12.918   -45 43 57.38  4.6859 5.4781 138.3 21.4  155  83
2019 09 13 06  23 24 11.184   -45 43 58.77  4.6861 5.4781 138.3 21.4  156  83
2019 09 13 07  23 24 09.450   -45 44 00.14  4.6863 5.4782 138.2 21.4  157  83
2019 09 13 08  23 24 07.717   -45 44 01.50  4.6865 5.4782 138.2 21.4  158  83
2019 09 13 09  23 24 05.984   -45 44 02.84  4.6867 5.4782 138.2 21.4  159  83
2019 09 13 10  23 24 04.250   -45 44 04.16  4.6869 5.4782 138.2 21.4  159  83
2019 09 13 11  23 24 02.517   -45 44 05.46  4.6871 5.4783 138.2 21.4  160  83
2019 09 13 12  23 24 00.784   -45 44 06.75  4.6873 5.4783 138.2 21.4  161  83
2019 09 13 13  23 23 59.051   -45 44 08.02  4.6875 5.4783 138.2 21.4  162  83
2019 09 13 14  23 23 57.319   -45 44 09.28  4.6877 5.4783 138.1 21.4  163  83
2019 09 13 15  23 23 55.586   -45 44 10.52  4.6879 5.4784 138.1 21.4  164  83
2019 09 13 16  23 23 53.854   -45 44 11.74  4.6881 5.4784 138.1 21.4  165  83
2019 09 13 17  23 23 52.121   -45 44 12.95  4.6883 5.4784 138.1 21.4  166  83
2019 09 13 18  23 23 50.389   -45 44 14.14  4.6885 5.4784 138.1 21.4  167  83
2019 09 13 19  23 23 48.657   -45 44 15.31  4.6887 5.4785 138.1 21.4  168  83
2019 09 13 20  23 23 46.925   -45 44 16.47  4.6889 5.4785 138.0 21.4  168  83
2019 09 13 21  23 23 45.193   -45 44 17.61  4.6891 5.4785 138.0 21.4  169  83
2019 09 13 22  23 23 43.462   -45 44 18.73  4.6893 5.4785 138.0 21.4  170  83
2019 09 13 23  23 23 41.730   -45 44 19.84  4.6895 5.4786 138.0 21.4  171  83
2019 09 14 00  23 23 39.999   -45 44 20.93  4.6897 5.4786 138.0 21.4  172  83
2019 09 14 01  23 23 38.268   -45 44 22.00  4.6899 5.4786 138.0 21.4  173  83
2019 09 14 02  23 23 36.537   -45 44 23.06  4.6901 5.4787 137.9 21.4  174  83
2019 09 14 03  23 23 34.806   -45 44 24.10  4.6903 5.4787 137.9 21.4  175  84
2019 09 14 04  23 23 33.075   -45 44 25.13  4.6905 5.4787 137.9 21.4  176  84
2019 09 14 05  23 23 31.344   -45 44 26.13  4.6907 5.4787 137.9 21.4  177  84
2019 09 14 06  23 23 29.614   -45 44 27.13  4.6909 5.4788 137.9 21.4  178  84
2019 09 14 07  23 23 27.884   -45 44 28.10  4.6911 5.4788 137.9 21.4  179  84
2019 09 14 08  23 23 26.154   -45 44 29.06  4.6913 5.4788 137.8 21.4  180  84
2019 09 14 09  23 23 24.424   -45 44 30.00  4.6916 5.4788 137.8 21.4  181  84
2019 09 14 10  23 23 22.694   -45 44 30.93  4.6918 5.4789 137.8 21.4  182  84
2019 09 14 11  23 23 20.964   -45 44 31.84  4.6920 5.4789 137.8 21.4  183  84